RYR147 EGKK-EDDM

Flight info

Callsign RYR147
Flight time 1h 22m
Altitude 23000
Route DVR L9 KONAN/N0455F370 UL607 SPI DCT MOVUM T109 HAREM/N0404F230 T104 ROKIL ROKIL1B
Aircraft B738/M-SDE2E3FGHIRWXY/LB1

Departure

Time 2026-05-06 17:23
Airport London Gatwick Airport (EGKK)

Arrival

Time 2026-05-06 18:46
Airport Munich Airport (EDDM)
Time Latitude Longitude Altitude Speed Heading
2026-05-06 16:56 51.15557 -0.17816 192 ft 0 kts 348°
2026-05-06 17:12 51.15556 -0.17816 192 ft 0 kts 348°
2026-05-06 17:12 51.15555 -0.17816 192 ft 1 kts 348°
2026-05-06 17:12 51.15541 -0.17808 192 ft 2 kts 338°
2026-05-06 17:13 51.15527 -0.17800 192 ft 2 kts 342°
2026-05-06 17:13 51.15512 -0.17793 192 ft 2 kts 341°
2026-05-06 17:13 51.15503 -0.17788 192 ft 1 kts 15°
2026-05-06 17:13 51.15496 -0.17797 192 ft 0 kts 71°
2026-05-06 17:14 51.15495 -0.17807 192 ft 1 kts 79°
2026-05-06 17:14 51.15494 -0.17810 192 ft 0 kts 77°
2026-05-06 17:16 51.15495 -0.17804 192 ft 3 kts 77°
2026-05-06 17:16 51.15506 -0.17728 194 ft 11 kts 77°
2026-05-06 17:16 51.15531 -0.17548 193 ft 18 kts 77°
2026-05-06 17:17 51.15506 -0.17433 192 ft 9 kts 153°
2026-05-06 17:17 51.15441 -0.17404 189 ft 0 kts 167°
2026-05-06 17:18 51.15428 -0.17400 189 ft 7 kts 167°
2026-05-06 17:18 51.15329 -0.17364 186 ft 20 kts 167°
2026-05-06 17:19 51.15220 -0.17421 188 ft 19 kts 251°
2026-05-06 17:19 51.15184 -0.17676 192 ft 28 kts 258°
2026-05-06 17:19 51.15136 -0.18026 194 ft 34 kts 257°
2026-05-06 17:19 51.15083 -0.18412 195 ft 37 kts 258°
2026-05-06 17:20 51.15034 -0.18765 195 ft 13 kts 258°
2026-05-06 17:20 51.15015 -0.18898 195 ft 17 kts 257°
2026-05-06 17:20 51.14980 -0.19158 195 ft 31 kts 258°
2026-05-06 17:20 51.14922 -0.19577 192 ft 45 kts 257°
2026-05-06 17:21 51.14852 -0.20081 195 ft 43 kts 257°
2026-05-06 17:21 51.14793 -0.20515 195 ft 43 kts 257°
2026-05-06 17:21 51.14728 -0.20982 196 ft 42 kts 258°
2026-05-06 17:21 51.14668 -0.21314 201 ft 16 kts 213°
2026-05-06 17:22 51.14540 -0.21260 200 ft 22 kts 126°
2026-05-06 17:22 51.14538 -0.21028 198 ft 0 kts 78°
2026-05-06 17:23 51.14542 -0.20999 197 ft 22 kts 76°
2026-05-06 17:23 51.14648 -0.20234 195 ft 116 kts 77°
2026-05-06 17:23 51.14874 -0.18607 398 ft 175 kts 76°
2026-05-06 17:23 51.15102 -0.16728 1401 ft 179 kts 75°
2026-05-06 17:24 51.15376 -0.14782 2240 ft 186 kts 73°
2026-05-06 17:24 51.15683 -0.12666 2779 ft 206 kts 75°
2026-05-06 17:24 51.16005 -0.10348 3399 ft 223 kts 75°
2026-05-06 17:24 51.16341 -0.07878 4017 ft 240 kts 76°
2026-05-06 17:25 51.16707 -0.05195 4644 ft 256 kts 76°
2026-05-06 17:25 51.16955 -0.02349 5406 ft 267 kts 86°
2026-05-06 17:25 51.16971 0.00652 6113 ft 277 kts 90°
2026-05-06 17:25 51.16959 0.03661 7174 ft 274 kts 89°
2026-05-06 17:26 51.16964 0.06709 8025 ft 279 kts 88°
2026-05-06 17:26 51.16971 0.09795 8880 ft 284 kts 88°
2026-05-06 17:26 51.16974 0.12939 9710 ft 288 kts 88°
2026-05-06 17:26 51.16974 0.16136 10442 ft 296 kts 88°
2026-05-06 17:27 51.16973 0.19537 10917 ft 313 kts 88°
2026-05-06 17:27 51.16970 0.23068 11387 ft 329 kts 88°
2026-05-06 17:27 51.16965 0.26814 11837 ft 346 kts 89°
2026-05-06 17:27 51.16957 0.30694 12273 ft 362 kts 89°
2026-05-06 17:28 51.16948 0.34734 12933 ft 370 kts 89°
2026-05-06 17:28 51.16935 0.38861 13709 ft 374 kts 89°
2026-05-06 17:28 51.16920 0.43002 14445 ft 379 kts 89°
2026-05-06 17:28 51.16903 0.47221 15167 ft 383 kts 89°
2026-05-06 17:29 51.16886 0.51464 15857 ft 389 kts 89°
2026-05-06 17:29 51.16869 0.55765 16538 ft 393 kts 89°
2026-05-06 17:29 51.16849 0.60159 17236 ft 397 kts 89°
2026-05-06 17:29 51.16833 0.63580 17740 ft 401 kts 89°
2026-05-06 17:30 51.16811 0.68020 18404 ft 404 kts 90°
2026-05-06 17:30 51.16788 0.72511 19057 ft 408 kts 90°
2026-05-06 17:30 51.16763 0.77007 19716 ft 411 kts 90°
2026-05-06 17:30 51.16736 0.81602 20336 ft 415 kts 90°
2026-05-06 17:31 51.16706 0.86196 20967 ft 418 kts 90°
2026-05-06 17:31 51.16672 0.90821 21532 ft 423 kts 90°
2026-05-06 17:31 51.16637 0.95475 22118 ft 426 kts 90°
2026-05-06 17:31 51.16600 1.00201 22692 ft 429 kts 90°
2026-05-06 17:32 51.16560 1.05008 23238 ft 433 kts 90°
2026-05-06 17:32 51.16519 1.09787 23789 ft 436 kts 90°
2026-05-06 17:32 51.16475 1.14626 24316 ft 440 kts 90°
2026-05-06 17:32 51.16430 1.19436 24803 ft 443 kts 90°
2026-05-06 17:33 51.16382 1.24380 25315 ft 447 kts 90°
2026-05-06 17:33 51.16331 1.29324 25805 ft 450 kts 90°
2026-05-06 17:33 51.16278 1.34333 26309 ft 453 kts 91°
2026-05-06 17:33 51.16194 1.39346 26760 ft 456 kts 92°
2026-05-06 17:34 51.16012 1.44389 27266 ft 458 kts 94°
2026-05-06 17:34 51.15772 1.49394 27731 ft 461 kts 95°
2026-05-06 17:34 51.15502 1.54469 28189 ft 463 kts 95°
2026-05-06 17:34 51.15219 1.59626 28636 ft 466 kts 95°
2026-05-06 17:35 51.14941 1.64703 29064 ft 469 kts 95°
2026-05-06 17:35 51.14659 1.69904 29515 ft 471 kts 96°
2026-05-06 17:35 51.14384 1.75062 30220 ft 466 kts 95°
2026-05-06 17:36 51.13846 1.85289 31341 ft 463 kts 95°
2026-05-06 17:36 51.13579 1.90382 31806 ft 462 kts 95°
2026-05-06 17:36 51.13309 1.95537 32283 ft 461 kts 95°
2026-05-06 17:36 51.13039 2.00659 32695 ft 461 kts 95°
2026-05-06 17:37 51.12770 2.05733 33120 ft 461 kts 95°
2026-05-06 17:37 51.12502 2.10771 33578 ft 459 kts 95°
2026-05-06 17:37 51.12230 2.15843 33986 ft 458 kts 94°
2026-05-06 17:37 51.11958 2.20864 34343 ft 458 kts 94°
2026-05-06 17:38 51.11685 2.25877 34724 ft 456 kts 94°
2026-05-06 17:38 51.11410 2.30885 35037 ft 456 kts 94°
2026-05-06 17:38 51.11131 2.35927 35305 ft 455 kts 94°
2026-05-06 17:38 51.10851 2.40933 35551 ft 456 kts 94°
2026-05-06 17:39 51.10570 2.45936 35790 ft 456 kts 95°
2026-05-06 17:39 51.10284 2.50974 36026 ft 456 kts 95°
2026-05-06 17:39 51.10001 2.55934 36267 ft 456 kts 95°
2026-05-06 17:39 51.09694 2.60934 36478 ft 456 kts 96°
2026-05-06 17:40 51.09231 2.65897 36662 ft 457 kts 101°
2026-05-06 17:40 51.08545 2.70834 36869 ft 457 kts 104°
2026-05-06 17:40 51.06852 2.80571 36930 ft 458 kts 107°
2026-05-06 17:41 51.05042 2.90201 36930 ft 455 kts 107°
2026-05-06 17:41 51.03226 2.99822 36923 ft 456 kts 107°
2026-05-06 17:42 51.01424 3.09446 36910 ft 455 kts 107°
2026-05-06 17:42 50.99625 3.19096 36914 ft 456 kts 107°
2026-05-06 17:43 50.97842 3.28667 36916 ft 455 kts 107°
2026-05-06 17:43 50.96040 3.38305 36908 ft 455 kts 107°
2026-05-06 17:44 50.94236 3.47910 36909 ft 455 kts 107°
2026-05-06 17:44 50.92426 3.57504 36909 ft 456 kts 107°
2026-05-06 17:45 50.90603 3.67110 36903 ft 455 kts 108°
2026-05-06 17:45 50.88776 3.76613 36897 ft 455 kts 108°
2026-05-06 17:46 50.86919 3.86196 36889 ft 455 kts 108°
2026-05-06 17:46 50.85064 3.95719 36898 ft 455 kts 108°
2026-05-06 17:47 50.83202 4.05237 36898 ft 455 kts 108°
2026-05-06 17:47 50.81334 4.14742 36898 ft 454 kts 108°
2026-05-06 17:48 50.79458 4.24243 36902 ft 454 kts 108°
2026-05-06 17:48 50.77566 4.33778 36896 ft 454 kts 108°
2026-05-06 17:49 50.75674 4.43268 36899 ft 454 kts 108°
2026-05-06 17:49 50.73781 4.52718 36899 ft 454 kts 108°
2026-05-06 17:50 50.71880 4.62175 36894 ft 454 kts 108°
2026-05-06 17:50 50.70013 4.71717 36895 ft 455 kts 108°
2026-05-06 17:51 50.68176 4.81224 36892 ft 455 kts 108°
2026-05-06 17:51 50.66340 4.90683 36891 ft 453 kts 108°
2026-05-06 17:52 50.64460 5.00105 36888 ft 454 kts 109°
2026-05-06 17:52 50.62507 5.09574 36889 ft 454 kts 109°
2026-05-06 17:53 50.60548 5.18997 36884 ft 454 kts 109°
2026-05-06 17:53 50.58598 5.28363 36881 ft 454 kts 109°
2026-05-06 17:54 50.56626 5.37803 36879 ft 454 kts 109°
2026-05-06 17:54 50.54657 5.47194 36872 ft 454 kts 109°
2026-05-06 17:55 50.52667 5.56652 36874 ft 454 kts 109°
2026-05-06 17:55 50.50707 5.66070 36867 ft 455 kts 109°
2026-05-06 17:56 50.48954 5.75568 36862 ft 455 kts 107°
2026-05-06 17:56 50.47270 5.85106 36847 ft 455 kts 107°
2026-05-06 17:57 50.45562 5.94678 36838 ft 455 kts 107°
2026-05-06 17:57 50.43828 6.04232 36832 ft 455 kts 107°
2026-05-06 17:58 50.42087 6.13713 36831 ft 454 kts 108°
2026-05-06 17:58 50.40333 6.23186 36827 ft 455 kts 108°
2026-05-06 17:59 50.38562 6.32690 36829 ft 455 kts 108°
2026-05-06 17:59 50.36780 6.42197 36827 ft 456 kts 108°
2026-05-06 18:00 50.34980 6.51751 36822 ft 456 kts 108°
2026-05-06 18:00 50.33180 6.61261 36814 ft 456 kts 108°
2026-05-06 18:01 50.31376 6.70738 36820 ft 456 kts 109°
2026-05-06 18:01 50.29567 6.80198 36834 ft 456 kts 109°
2026-05-06 18:02 50.27757 6.89617 36839 ft 456 kts 109°
2026-05-06 18:02 50.25929 6.99078 36842 ft 457 kts 109°
2026-05-06 18:03 50.24083 7.08586 36843 ft 457 kts 109°
2026-05-06 18:03 50.22234 7.18066 36845 ft 457 kts 109°
2026-05-06 18:04 50.20380 7.27521 36844 ft 457 kts 109°
2026-05-06 18:04 50.18514 7.36995 36842 ft 456 kts 109°
2026-05-06 18:05 50.16648 7.46418 36833 ft 456 kts 110°
2026-05-06 18:05 50.14781 7.55797 36835 ft 456 kts 109°
2026-05-06 18:06 50.12897 7.65219 36833 ft 456 kts 110°
2026-05-06 18:06 50.11009 7.74622 36834 ft 455 kts 110°
2026-05-06 18:07 50.09124 7.83961 36828 ft 455 kts 110°
2026-05-06 18:07 50.07224 7.93328 36821 ft 455 kts 110°
2026-05-06 18:08 50.05314 8.02698 36816 ft 455 kts 110°
2026-05-06 18:08 50.03390 8.12093 36818 ft 455 kts 110°
2026-05-06 18:09 50.01465 8.21456 36818 ft 454 kts 111°
2026-05-06 18:09 49.99542 8.30757 36815 ft 455 kts 111°
2026-05-06 18:10 49.97611 8.40054 36814 ft 455 kts 111°
2026-05-06 18:10 49.95623 8.49398 36814 ft 454 kts 112°
2026-05-06 18:11 49.93069 8.58268 36811 ft 450 kts 121°
2026-05-06 18:11 49.89993 8.66730 36808 ft 450 kts 124°
2026-05-06 18:12 49.86821 8.75089 36810 ft 450 kts 124°
2026-05-06 18:12 49.83675 8.83394 36812 ft 450 kts 124°
2026-05-06 18:13 49.80539 8.91729 36809 ft 451 kts 123°
2026-05-06 18:13 49.77389 9.00127 36807 ft 452 kts 124°
2026-05-06 18:14 49.74249 9.08501 36811 ft 451 kts 124°
2026-05-06 18:14 49.71124 9.16817 36808 ft 450 kts 124°
2026-05-06 18:15 49.67987 9.25142 36812 ft 450 kts 124°
2026-05-06 18:15 49.64842 9.33458 36811 ft 450 kts 124°
2026-05-06 18:16 49.61549 9.41666 36811 ft 447 kts 129°
2026-05-06 18:16 49.57695 9.49084 36812 ft 444 kts 135°
2026-05-06 18:17 49.53600 9.56177 36815 ft 443 kts 135°
2026-05-06 18:17 49.49483 9.63231 36809 ft 443 kts 135°
2026-05-06 18:18 49.45375 9.70305 36817 ft 442 kts 136°
2026-05-06 18:18 49.41289 9.77372 36814 ft 442 kts 136°
2026-05-06 18:19 49.37205 9.84438 36815 ft 442 kts 136°
2026-05-06 18:19 49.35211 9.87887 36578 ft 435 kts 136°
2026-05-06 18:19 49.33215 9.91335 35843 ft 437 kts 136°
2026-05-06 18:20 49.31203 9.94798 34894 ft 440 kts 136°
2026-05-06 18:20 49.29156 9.98315 34186 ft 439 kts 136°
2026-05-06 18:20 49.27136 10.01785 33302 ft 438 kts 136°
2026-05-06 18:20 49.25109 10.05264 32310 ft 439 kts 136°
2026-05-06 18:21 49.23101 10.08706 31295 ft 440 kts 136°
2026-05-06 18:21 49.21064 10.12194 30224 ft 440 kts 135°
2026-05-06 18:21 49.19038 10.15658 28883 ft 444 kts 135°
2026-05-06 18:21 49.16972 10.19183 27512 ft 447 kts 135°
2026-05-06 18:22 49.14921 10.22683 26534 ft 440 kts 134°
2026-05-06 18:22 49.12908 10.26091 25696 ft 431 kts 135°
2026-05-06 18:22 49.10903 10.29382 25014 ft 418 kts 135°
2026-05-06 18:22 49.08965 10.32505 24507 ft 403 kts 135°
2026-05-06 18:23 49.07061 10.35545 24010 ft 389 kts 135°
2026-05-06 18:23 49.05232 10.38464 23632 ft 374 kts 135°
2026-05-06 18:23 49.03462 10.41285 22884 ft 370 kts 135°
2026-05-06 18:23 49.01681 10.44119 21977 ft 370 kts 135°
2026-05-06 18:24 48.99930 10.46906 21228 ft 366 kts 135°
2026-05-06 18:24 48.98181 10.49694 20453 ft 363 kts 135°
2026-05-06 18:24 48.96452 10.52454 20000 ft 352 kts 135°
2026-05-06 18:24 48.94803 10.55087 19389 ft 347 kts 135°
2026-05-06 18:25 48.93128 10.57753 18671 ft 345 kts 136°
2026-05-06 18:25 48.91483 10.60366 17992 ft 343 kts 136°
2026-05-06 18:25 48.89856 10.62954 17329 ft 340 kts 136°
2026-05-06 18:25 48.88237 10.65526 16896 ft 333 kts 137°
2026-05-06 18:26 48.86620 10.68017 16823 ft 333 kts 139°
2026-05-06 18:26 48.84944 10.70450 16827 ft 336 kts 140°
2026-05-06 18:26 48.83231 10.72888 16815 ft 337 kts 140°
2026-05-06 18:26 48.81523 10.75324 16802 ft 333 kts 140°
2026-05-06 18:27 48.79863 10.77712 16323 ft 329 kts 140°
2026-05-06 18:27 48.78220 10.80088 15565 ft 330 kts 140°
2026-05-06 18:27 48.76579 10.82472 14936 ft 328 kts 140°
2026-05-06 18:27 48.74952 10.84834 14464 ft 325 kts 140°
2026-05-06 18:28 48.73324 10.87194 14030 ft 323 kts 140°
2026-05-06 18:28 48.71706 10.89541 13573 ft 321 kts 140°
2026-05-06 18:28 48.70102 10.91864 13098 ft 320 kts 140°
2026-05-06 18:28 48.68501 10.94185 12673 ft 318 kts 140°
2026-05-06 18:29 48.66909 10.96495 12272 ft 315 kts 140°
2026-05-06 18:29 48.65350 10.98751 11794 ft 315 kts 140°
2026-05-06 18:29 48.63761 11.01043 11361 ft 313 kts 140°
2026-05-06 18:29 48.62205 11.03286 10958 ft 310 kts 140°
2026-05-06 18:30 48.60664 11.05507 10847 ft 308 kts 140°
2026-05-06 18:30 48.59094 11.07764 10835 ft 310 kts 140°
2026-05-06 18:30 48.57573 11.09955 10830 ft 294 kts 140°
2026-05-06 18:30 48.56126 11.12040 10836 ft 287 kts 140°
2026-05-06 18:31 48.54667 11.14129 10837 ft 289 kts 140°
2026-05-06 18:31 48.53197 11.16232 10840 ft 289 kts 140°
2026-05-06 18:31 48.51748 11.18305 10842 ft 290 kts 140°
2026-05-06 18:31 48.50280 11.20405 10836 ft 291 kts 140°
2026-05-06 18:32 48.48815 11.22499 10832 ft 290 kts 140°
2026-05-06 18:32 48.47368 11.24567 10833 ft 289 kts 140°
2026-05-06 18:32 48.45898 11.26667 10835 ft 290 kts 140°
2026-05-06 18:32 48.44431 11.28762 10848 ft 289 kts 140°
2026-05-06 18:33 48.43040 11.30906 10849 ft 293 kts 133°
2026-05-06 18:33 48.42005 11.33597 10839 ft 299 kts 111°
2026-05-06 18:33 48.41707 11.36682 10844 ft 305 kts 90°
2026-05-06 18:33 48.41933 11.39864 10835 ft 307 kts 85°
2026-05-06 18:34 48.42213 11.43041 10831 ft 307 kts 85°
2026-05-06 18:34 48.42480 11.46245 10828 ft 308 kts 85°
2026-05-06 18:34 48.42732 11.49416 10829 ft 308 kts 85°
2026-05-06 18:34 48.42983 11.52619 10831 ft 307 kts 85°
2026-05-06 18:35 48.43229 11.55758 10862 ft 294 kts 85°
2026-05-06 18:35 48.43460 11.58716 10719 ft 280 kts 85°
2026-05-06 18:35 48.43678 11.61551 10493 ft 272 kts 85°
2026-05-06 18:35 48.43895 11.64391 10137 ft 270 kts 85°
2026-05-06 18:36 48.44109 11.67190 9742 ft 268 kts 86°
2026-05-06 18:36 48.44318 11.69930 9386 ft 266 kts 85°
2026-05-06 18:36 48.44531 11.72709 8982 ft 266 kts 85°
2026-05-06 18:36 48.44743 11.75473 8537 ft 267 kts 84°
2026-05-06 18:37 48.44955 11.78223 8157 ft 266 kts 84°
2026-05-06 18:37 48.45170 11.80987 7775 ft 265 kts 83°
2026-05-06 18:37 48.45381 11.83723 7420 ft 263 kts 83°
2026-05-06 18:37 48.45586 11.86440 6990 ft 265 kts 83°
2026-05-06 18:38 48.45792 11.89208 6623 ft 264 kts 82°
2026-05-06 18:38 48.45996 11.91912 6215 ft 265 kts 82°
2026-05-06 18:38 48.46205 11.94679 5870 ft 262 kts 81°
2026-05-06 18:38 48.46409 11.97365 5534 ft 260 kts 81°
2026-05-06 18:39 48.46613 12.00043 5138 ft 261 kts 81°
2026-05-06 18:39 48.46820 12.02743 4743 ft 260 kts 81°
2026-05-06 18:39 48.47031 12.05443 4392 ft 257 kts 81°
2026-05-06 18:40 48.47236 12.10763 3986 ft 258 kts 103°
2026-05-06 18:40 48.46469 12.13139 3986 ft 254 kts 133°
2026-05-06 18:40 48.45060 12.14628 3977 ft 248 kts 164°
2026-05-06 18:40 48.43401 12.15220 3971 ft 242 kts 179°
2026-05-06 18:41 48.41830 12.14984 3968 ft 220 kts 207°
2026-05-06 18:41 48.40635 12.13679 3979 ft 209 kts 232°
2026-05-06 18:41 48.39727 12.12036 3980 ft 202 kts 243°
2026-05-06 18:41 48.39212 12.10102 3992 ft 199 kts 257°
2026-05-06 18:42 48.38824 12.08094 3989 ft 199 kts 259°
2026-05-06 18:42 48.38544 12.06048 3982 ft 199 kts 263°
2026-05-06 18:42 48.38364 12.04010 3987 ft 198 kts 265°
2026-05-06 18:42 48.38198 12.01949 3984 ft 194 kts 265°
2026-05-06 18:43 48.38040 12.00000 3883 ft 185 kts 265°
2026-05-06 18:43 48.37891 11.98084 3576 ft 186 kts 265°
2026-05-06 18:43 48.37744 11.96164 3317 ft 185 kts 265°
2026-05-06 18:43 48.37602 11.94250 3064 ft 183 kts 265°
2026-05-06 18:44 48.37459 11.92374 2817 ft 181 kts 265°
2026-05-06 18:44 48.37318 11.90537 2577 ft 170 kts 265°
2026-05-06 18:44 48.37191 11.88852 2373 ft 155 kts 264°
2026-05-06 18:44 48.37072 11.87296 2155 ft 142 kts 265°
2026-05-06 18:45 48.36965 11.85874 1974 ft 132 kts 262°
2026-05-06 18:45 48.36856 11.84529 1809 ft 131 kts 265°
2026-05-06 18:45 48.36773 11.83173 1615 ft 131 kts 262°
2026-05-06 18:45 48.36664 11.81826 1461 ft 128 kts 264°
2026-05-06 18:46 48.36579 11.80686 1447 ft 78 kts 263°
2026-05-06 18:46 48.36542 11.80194 1449 ft 27 kts 264°
2026-05-06 18:46 48.36519 11.79934 1450 ft 21 kts 258°
2026-05-06 18:46 48.36445 11.79690 1453 ft 15 kts 235°
2026-05-06 18:47 48.36434 11.79667 1453 ft 6 kts 234°
2026-05-06 18:47 48.36383 11.79563 1454 ft 17 kts 234°
2026-05-06 18:47 48.36295 11.79383 1459 ft 23 kts 233°
2026-05-06 18:47 48.36200 11.79178 1461 ft 24 kts 248°
2026-05-06 18:48 48.36171 11.78908 1462 ft 29 kts 263°
2026-05-06 18:48 48.36153 11.78674 1462 ft 22 kts 264°
2026-05-06 18:48 48.36132 11.78404 1463 ft 29 kts 263°
2026-05-06 18:48 48.36116 11.78213 1461 ft 14 kts 265°
2026-05-06 18:49 48.36102 11.78017 1459 ft 23 kts 264°
2026-05-06 18:49 48.36083 11.77767 1459 ft 20 kts 264°
2026-05-06 18:49 48.36017 11.77669 1459 ft 4 kts 178°
2026-05-06 18:49 48.35992 11.77671 1459 ft 0 kts 175°
2026-05-06 18:54 48.35991 11.77671 1459 ft 1 kts 175°
2026-05-06 18:54 48.35963 11.77676 1459 ft 6 kts 174°
2026-05-06 18:54 48.35900 11.77686 1459 ft 11 kts 174°
2026-05-06 18:55 48.35801 11.77703 1459 ft 16 kts 173°
2026-05-06 18:55 48.35671 11.77726 1462 ft 20 kts 174°
2026-05-06 18:55 48.35560 11.77745 1464 ft 17 kts 173°
2026-05-06 18:55 48.35429 11.77767 1467 ft 18 kts 174°
2026-05-06 18:56 48.35313 11.77787 1469 ft 16 kts 174°
2026-05-06 18:56 48.35267 11.77795 1469 ft 0 kts 173°
2026-05-06 18:56 48.35260 11.77798 1469 ft 3 kts 157°
2026-05-06 18:56 48.35251 11.77842 1469 ft 6 kts 91°
2026-05-06 18:57 48.35252 11.77879 1469 ft 6 kts 85°
2026-05-06 18:57 48.35255 11.77932 1469 ft 0 kts 84°
2026-05-06 18:57 48.35256 11.77933 1469 ft 0 kts 84°